Regional Weather Roundup
Issued by NWS Huntsville, AL

Home | Current Version | Previous Version | Text Only | Print | Product List | Glossary On
Versions: 1 2 3 4 5 6 7 8 9 10 11 12 13 14 15 16 17 18 19 20 21 22 23 24 25 26 27 28 29 30 31 32 33 34 35 36 37 38 39 40 41 42 43 44 45 46 47 48 49 50
000
ASUS44 KHUN 011110
RWRHUN

WEATHER ROUNDUP FOR THE TENNESSEE VALLEY
NATIONAL WEATHER SERVICE HUNTSVILLE AL
600 AM CDT TUE SEP 01 2015

ALZ001>004-011200-
NORTHWEST ALABAMA

CITY           SKY/WX    TMP DP  RH WIND       PRES   REMARKS
COURTLAND HCN    N/A     64 N/A N/A CALM        N/A
BANKHEAD NF      N/A     66  66 100 CALM        N/A
RUSSELLVILLE     N/A     63 N/A N/A MISG        N/A
SHOALS AIRPORT PTCLDY    65  63  93 CALM      30.13R
SHOALS TVA RES   N/A     64 N/A N/A MISG        N/A
$$

ALZ005>007-016-011200-
NORTH CENTRAL ALABAMA

CITY           SKY/WX    TMP DP  RH WIND       PRES   REMARKS
CULLMAN AG STN   N/A     64 N/A N/A CALM        N/A
DECATUR AP     PTCLDY    64  64 100 CALM      30.13R FOG
HUNTSVILLE AP  PTCLDY    69  66  90 E5        30.12S
HUN NWS/UAH      N/A     69  66  90 CALM        N/A
MERIDIANVILLE  CLOUDY    63  61  94 CALM      30.14R FOG
REDSTONE ARSN  CLEAR     66  66 100 NE2       30.12R FOG
VINEMONT AP    FAIR      63  63 100 CALM      30.15R
$$

ALZ008>010-011200-
NORTHEAST ALABAMA

CITY           SKY/WX    TMP DP  RH WIND       PRES   REMARKS
ALBERTVILLE    MOCLDY    66  66 100 CALM      30.13R FOG
FORT PAYNE     FOG       63  59  88 CALM      30.14R VSB 1/2
SCOTTSBORO AP  FOG       66  66 100 NE3       30.15R VSB 1/4
SCOTTSBORO HCN   N/A     66 N/A N/A MISG        N/A
VALLEY HEAD      N/A     63 N/A N/A MISG        N/A
$$

TNZ076-096-097-011200-
SOUTHEASTERN MIDDLE TENNESSEE

CITY           SKY/WX    TMP DP  RH WIND       PRES   REMARKS
TULLAHOMA      CLEAR     63  61  94 CALM      30.16S
WINCHESTER     CLEAR     63  61  94 CALM      30.15R
$$

...SURROUNDING SITES...

CITY           SKY/WX    TMP DP  RH WIND       PRES   REMARKS
ATLANTA        PTCLDY    70  66  87 NW3       30.13R
ANNISTON       CLOUDY    70  67  90 CALM      30.12R
BIRMINGHAM     PTCLDY    69  67  93 CALM      30.13R
CHATTANOOGA    PTCLDY    67  65  93 CALM      30.14R
DALTON         MOCLDY    63  63 100 CALM      30.14R
GADSDEN        FAIR      64  61  88 CALM      30.12R
GOLDEN TRNGL   CLEAR     66  63  88 CALM      30.08R
HALEYVILLE     FAIR      63  63 100 CALM      30.16R FOG
JACKSON TN     PTCLDY    66  65  96 CALM      30.11R
MEMPHIS        CLOUDY    73  68  84 CALM      30.09S
NASHVILLE      PTCLDY    67  64  90 CALM      30.14R
OXFORD MS      FAIR      66  64  94 CALM      30.11R
ROME           CLEAR     65  63  93 CALM      30.12R
SAVANNAH       CLEAR     63  32  31 CALM      30.12S
TUPELO         CLEAR     68  66  93 NE6       30.10R FOG
TUSCALOOSA     CLEAR     69  67  93 CALM      30.09R FOG
$$

...GULF COAST WEATHER...

CITY           SKY/WX    TMP DP  RH WIND       PRES   REMARKS
GULFPORT       PTCLDY    71  68  90 CALM      30.05R
PASCAGOULA     CLEAR     68  67  96 CALM      30.06R FOG
MOBILE         PTCLDY    70  70 100 CALM      30.08R
GULF SHORES    SUNNY     69  69 100 N3        30.06R
PENSACOLA      MOCLDY    72  70  93 N3        30.06R
DESTIN         PTCLDY    76  72  87 NW3       30.06R
PANAMA CITY    PTCLDY    73  73 100 N5        30.04S
APPALACHICOLA  CLOUDY    74  74 100 N6        30.03S
$$




USA.gov is the U.S. government's official web portal to all federal, state and local government web resources and services.